Time,TemperatureF,DewpointF,PressureIn,WindDirection,WindDirectionDegrees,WindSpeedMPH,WindSpeedGustMPH,Humidity,HourlyPrecipIn,Conditions,Clouds,dailyrainin,SolarRadiationWatts/m^2,SoftwareType,DateUTC
2013-04-07 00:02:00,35.0,32.0,-100.00,NW,308,9.0,14.0,88,0.00,,,0.04,1.000000,,2013-04-07 05:02:00,
2013-04-07 00:34:00,35.0,32.0,-100.00,NW,320,8.0,16.0,88,0.00,,,0.04,1.000000,,2013-04-07 05:34:00,
2013-04-07 00:43:00,35.0,32.0,-100.00,NW,320,8.0,16.0,88,0.00,,,0.04,1.000000,,2013-04-07 05:43:00,
2013-04-07 00:52:00,35.0,32.0,-100.00,NW,320,8.0,16.0,88,0.00,,,0.04,1.000000,,2013-04-07 05:52:00,
2013-04-07 01:02:00,35.0,32.0,-100.00,NW,320,8.0,16.0,88,0.00,,,0.04,1.000000,,2013-04-07 06:02:00,
2013-04-07 01:32:00,35.0,33.0,-100.00,NW,312,9.0,14.0,93,0.00,,,0.04,1.000000,,2013-04-07 06:32:00,
2013-04-07 01:43:00,35.0,33.0,-100.00,NW,312,9.0,14.0,93,0.00,,,0.04,1.000000,,2013-04-07 06:43:00,
2013-04-07 01:52:00,35.0,33.0,-100.00,NW,312,9.0,14.0,93,0.00,,,0.04,1.000000,,2013-04-07 06:52:00,
2013-04-07 02:02:00,35.0,33.0,-100.00,NW,312,9.0,14.0,93,0.00,,,0.04,1.000000,,2013-04-07 07:02:00,
2013-04-07 02:33:00,35.0,32.0,-100.00,NW,308,10.0,15.0,89,0.00,,,0.04,1.000000,,2013-04-07 07:33:00,
2013-04-07 02:42:00,35.0,32.0,-100.00,NW,308,10.0,15.0,89,0.00,,,0.04,1.000000,,2013-04-07 07:42:00,
2013-04-07 02:52:00,35.0,32.0,-100.00,NW,308,10.0,15.0,89,0.00,,,0.04,1.000000,,2013-04-07 07:52:00,
2013-04-07 03:02:00,35.0,32.0,-100.00,NW,308,10.0,15.0,89,0.00,,,0.04,1.000000,,2013-04-07 08:02:00,
2013-04-07 03:33:00,34.0,30.0,-100.00,NW,325,9.0,15.0,86,0.00,,,0.04,1.000000,,2013-04-07 08:33:00,
2013-04-07 03:43:00,34.0,30.0,-100.00,NW,325,9.0,15.0,86,0.00,,,0.04,1.000000,,2013-04-07 08:43:00,
2013-04-07 03:53:00,34.0,30.0,-100.00,NW,325,9.0,15.0,86,0.00,,,0.04,1.000000,,2013-04-07 08:53:00,
2013-04-07 04:02:00,34.0,30.0,-100.00,NW,325,9.0,15.0,86,0.00,,,0.04,1.000000,,2013-04-07 09:02:00,
2013-04-07 04:34:00,34.0,30.0,-100.00,NW,311,8.0,13.0,86,0.00,,,0.04,1.000000,,2013-04-07 09:34:00,
2013-04-07 04:44:00,34.0,30.0,-100.00,NW,311,8.0,13.0,86,0.00,,,0.04,1.000000,,2013-04-07 09:44:00,
2013-04-07 04:54:00,34.0,30.0,-100.00,NW,311,8.0,13.0,86,0.00,,,0.04,1.000000,,2013-04-07 09:54:00,
2013-04-07 05:04:00,34.0,30.0,-100.00,NW,311,8.0,13.0,86,0.00,,,0.04,1.000000,,2013-04-07 10:04:00,
2013-04-07 05:34:00,34.0,31.0,-100.00,NW,311,6.0,11.0,87,0.00,,,0.04,1.000000,,2013-04-07 10:34:00,
2013-04-07 05:43:00,34.0,31.0,-100.00,NW,311,6.0,11.0,87,0.00,,,0.04,1.000000,,2013-04-07 10:43:00,
2013-04-07 05:54:00,34.0,31.0,-100.00,NW,311,6.0,11.0,87,0.00,,,0.04,1.000000,,2013-04-07 10:54:00,
2013-04-07 06:03:00,34.0,31.0,-100.00,NW,311,6.0,11.0,87,0.00,,,0.04,1.000000,,2013-04-07 11:03:00,
2013-04-07 06:33:00,34.0,30.0,-100.00,NW,305,7.0,10.0,85,0.00,,,0.04,1.000000,,2013-04-07 11:33:00,
2013-04-07 06:43:00,34.0,30.0,-100.00,NW,305,7.0,10.0,85,0.00,,,0.04,1.000000,,2013-04-07 11:43:00,
2013-04-07 06:53:00,34.0,30.0,-100.00,NW,305,7.0,10.0,85,0.00,,,0.04,1.000000,,2013-04-07 11:53:00,
2013-04-07 07:02:00,34.0,30.0,-100.00,NW,305,7.0,10.0,85,0.00,,,0.04,1.000000,,2013-04-07 12:02:00,
2013-04-07 07:35:00,34.0,30.0,-100.00,NW,318,5.0,10.0,85,0.00,,,0.04,3.000000,,2013-04-07 12:35:00,
2013-04-07 07:43:00,34.0,30.0,-100.00,NW,318,5.0,10.0,85,0.00,,,0.04,3.000000,,2013-04-07 12:43:00,
2013-04-07 07:54:00,34.0,30.0,-100.00,NW,318,5.0,10.0,85,0.00,,,0.04,3.000000,,2013-04-07 12:54:00,
2013-04-07 08:03:00,34.0,30.0,-100.00,NW,318,5.0,10.0,85,0.00,,,0.04,3.000000,,2013-04-07 13:03:00,
2013-04-07 08:33:00,34.0,29.0,-100.00,NW,305,5.0,6.0,81,0.00,,,0.04,24.000000,,2013-04-07 13:33:00,
2013-04-07 08:43:00,34.0,29.0,-100.00,NW,305,5.0,6.0,81,0.00,,,0.04,24.000000,,2013-04-07 13:43:00,
2013-04-07 08:53:00,34.0,29.0,-100.00,NW,305,5.0,6.0,81,0.00,,,0.04,24.000000,,2013-04-07 13:53:00,
2013-04-07 09:02:00,34.0,29.0,-100.00,NW,305,5.0,6.0,81,0.00,,,0.04,24.000000,,2013-04-07 14:02:00,
2013-04-07 09:33:00,35.0,28.0,-100.00,WNW,303,5.0,11.0,75,0.00,,,0.04,57.000000,,2013-04-07 14:33:00,
2013-04-07 09:44:00,35.0,28.0,-100.00,WNW,303,5.0,11.0,75,0.00,,,0.04,57.000000,,2013-04-07 14:44:00,
2013-04-07 09:54:00,35.0,28.0,-100.00,WNW,303,5.0,11.0,75,0.00,,,0.04,57.000000,,2013-04-07 14:54:00,
2013-04-07 10:03:00,35.0,28.0,-100.00,WNW,303,5.0,11.0,75,0.00,,,0.04,57.000000,,2013-04-07 15:03:00,
2013-04-07 10:35:00,35.0,28.0,-100.00,NNW,347,2.0,7.0,74,0.00,,,0.04,87.000000,,2013-04-07 15:35:00,
2013-04-07 10:45:00,35.0,28.0,-100.00,NNW,347,2.0,7.0,74,0.00,,,0.04,87.000000,,2013-04-07 15:45:00,
2013-04-07 10:55:00,35.0,28.0,-100.00,NNW,347,2.0,7.0,74,0.00,,,0.04,87.000000,,2013-04-07 15:55:00,
2013-04-07 11:04:00,35.0,28.0,-100.00,NNW,347,2.0,7.0,74,0.00,,,0.04,87.000000,,2013-04-07 16:04:00,
2013-04-07 11:34:00,36.0,29.0,-100.00,East,91,3.0,5.0,74,0.00,,,0.04,142.000000,,2013-04-07 16:34:00,
2013-04-07 11:44:00,36.0,29.0,-100.00,East,91,3.0,5.0,74,0.00,,,0.04,142.000000,,2013-04-07 16:44:00,
2013-04-07 11:54:00,36.0,29.0,-100.00,East,91,3.0,5.0,74,0.00,,,0.04,142.000000,,2013-04-07 16:54:00,
2013-04-07 12:04:00,36.0,29.0,-100.00,East,91,3.0,5.0,74,0.00,,,0.04,142.000000,,2013-04-07 17:04:00,
2013-04-07 12:43:00,37.0,28.0,-100.00,SW,219,4.0,7.0,70,0.00,,,0.04,190.000000,,2013-04-07 17:43:00,
2013-04-07 12:54:00,37.0,28.0,-100.00,SW,219,4.0,7.0,70,0.00,,,0.04,190.000000,,2013-04-07 17:54:00,
2013-04-07 13:02:00,37.0,28.0,-100.00,SW,219,4.0,7.0,70,0.00,,,0.04,190.000000,,2013-04-07 18:02:00,
2013-04-07 13:33:00,38.0,29.0,-100.00,SSW,202,3.0,9.0,69,0.00,,,0.04,226.000000,,2013-04-07 18:33:00,
2013-04-07 13:44:00,38.0,29.0,-100.00,SSW,202,3.0,9.0,69,0.00,,,0.04,226.000000,,2013-04-07 18:44:00,
2013-04-07 13:53:00,38.0,29.0,-100.00,SSW,202,3.0,9.0,69,0.00,,,0.04,226.000000,,2013-04-07 18:53:00,
2013-04-07 14:02:00,38.0,29.0,-100.00,SSW,202,3.0,9.0,69,0.00,,,0.04,226.000000,,2013-04-07 19:02:00,
2013-04-07 14:33:00,39.0,29.0,-100.00,SSE,168,6.0,10.0,68,0.00,,,0.04,282.000000,,2013-04-07 19:33:00,
2013-04-07 14:43:00,39.0,29.0,-100.00,SSE,168,6.0,10.0,68,0.00,,,0.04,282.000000,,2013-04-07 19:43:00,
2013-04-07 14:55:00,39.0,29.0,-100.00,SSE,168,6.0,10.0,68,0.00,,,0.04,282.000000,,2013-04-07 19:55:00,
2013-04-07 15:02:00,39.0,29.0,-100.00,SSE,168,6.0,10.0,68,0.00,,,0.04,282.000000,,2013-04-07 20:02:00,
2013-04-07 15:33:00,40.0,30.0,-100.00,SE,142,5.0,9.0,66,0.00,,,0.03,292.000000,,2013-04-07 20:33:00,
2013-04-07 15:44:00,40.0,30.0,-100.00,SE,142,5.0,9.0,66,0.00,,,0.03,292.000000,,2013-04-07 20:44:00,
2013-04-07 15:54:00,40.0,30.0,-100.00,SE,142,5.0,9.0,66,0.00,,,0.03,292.000000,,2013-04-07 20:54:00,
2013-04-07 16:03:00,40.0,30.0,-100.00,SE,142,5.0,9.0,66,0.00,,,0.03,292.000000,,2013-04-07 21:03:00,
2013-04-07 16:45:00,41.0,30.0,-100.00,SSE,155,7.0,13.0,65,0.00,,,0.01,336.000000,,2013-04-07 21:45:00,
2013-04-07 16:55:00,41.0,30.0,-100.00,SSE,155,7.0,13.0,65,0.00,,,0.01,336.000000,,2013-04-07 21:55:00,
2013-04-07 17:04:00,41.0,30.0,-100.00,SSE,155,7.0,13.0,65,0.00,,,0.01,336.000000,,2013-04-07 22:04:00,
2013-04-07 17:34:00,42.0,31.0,-100.00,ESE,121,7.0,12.0,66,0.00,,,0.01,350.000000,,2013-04-07 22:34:00,
2013-04-07 17:44:00,42.0,31.0,-100.00,ESE,121,7.0,12.0,66,0.00,,,0.01,350.000000,,2013-04-07 22:44:00,
2013-04-07 17:53:00,42.0,31.0,-100.00,ESE,121,7.0,12.0,66,0.00,,,0.01,350.000000,,2013-04-07 22:53:00,
2013-04-07 18:03:00,42.0,31.0,-100.00,ESE,121,7.0,12.0,66,0.00,,,0.01,350.000000,,2013-04-07 23:03:00,
2013-04-07 18:33:00,41.0,31.0,-100.00,ESE,115,6.0,13.0,67,0.00,,,0.01,245.000000,,2013-04-07 23:33:00,
2013-04-07 18:43:00,41.0,31.0,-100.00,ESE,115,6.0,13.0,67,0.00,,,0.01,245.000000,,2013-04-07 23:43:00,
2013-04-07 18:53:00,41.0,31.0,-100.00,ESE,115,6.0,13.0,67,0.00,,,0.01,245.000000,,2013-04-07 23:53:00,
2013-04-07 19:02:00,41.0,31.0,-100.00,ESE,115,6.0,13.0,67,0.00,,,0.01,245.000000,,2013-04-08 00:02:00,
2013-04-07 19:33:00,41.0,32.0,-100.00,ESE,122,5.0,11.0,71,0.00,,,0.01,94.000000,,2013-04-08 00:33:00,
2013-04-07 19:43:00,41.0,32.0,-100.00,ESE,122,5.0,11.0,71,0.00,,,0.01,94.000000,,2013-04-08 00:43:00,
2013-04-07 19:53:00,41.0,32.0,-100.00,ESE,122,5.0,11.0,71,0.00,,,0.01,94.000000,,2013-04-08 00:53:00,
2013-04-07 20:02:00,41.0,32.0,-100.00,ESE,122,5.0,11.0,71,0.00,,,0.01,94.000000,,2013-04-08 01:02:00,
2013-04-07 20:34:00,39.0,32.0,-100.00,ESE,109,4.0,6.0,75,0.00,,,0.00,12.000000,,2013-04-08 01:34:00,
2013-04-07 20:44:00,39.0,32.0,-100.00,ESE,109,4.0,6.0,75,0.00,,,0.00,12.000000,,2013-04-08 01:44:00,
2013-04-07 20:55:00,39.0,32.0,-100.00,ESE,109,4.0,6.0,75,0.00,,,0.00,12.000000,,2013-04-08 01:55:00,
2013-04-07 21:03:00,39.0,32.0,-100.00,ESE,109,4.0,6.0,75,0.00,,,0.00,12.000000,,2013-04-08 02:03:00,
2013-04-07 21:33:00,38.0,32.0,-100.00,East,96,4.0,6.0,79,0.00,,,0.00,1.000000,,2013-04-08 02:33:00,
2013-04-07 21:54:00,38.0,32.0,-100.00,East,96,4.0,6.0,79,0.00,,,0.00,1.000000,,2013-04-08 02:54:00,
2013-04-07 22:07:00,38.0,32.0,-100.00,East,96,4.0,6.0,79,0.00,,,0.00,1.000000,,2013-04-08 03:07:00,
2013-04-07 22:37:00,38.0,33.0,-100.00,East,95,6.0,8.0,82,0.00,,,0.00,1.000000,,2013-04-08 03:37:00,
2013-04-07 22:48:00,38.0,33.0,-100.00,East,95,6.0,8.0,82,0.00,,,0.00,1.000000,,2013-04-08 03:48:00,
2013-04-07 22:57:00,38.0,33.0,-100.00,East,95,6.0,8.0,82,0.00,,,0.00,1.000000,,2013-04-08 03:57:00,
2013-04-07 23:03:00,38.0,33.0,-100.00,East,95,6.0,8.0,82,0.00,,,0.00,1.000000,,2013-04-08 04:03:00,
2013-04-07 23:34:00,36.0,34.0,-100.00,East,95,4.0,8.0,93,0.05,,,0.05,1.000000,,2013-04-08 04:34:00,
2013-04-07 23:44:00,36.0,34.0,-100.00,East,95,4.0,8.0,93,0.05,,,0.05,1.000000,,2013-04-08 04:44:00,
2013-04-07 23:53:00,36.0,34.0,-100.00,East,95,4.0,8.0,93,0.05,,,0.05,1.000000,,2013-04-08 04:53:00,